This is the latest recevied weather packets stored in our database for station/object DO8TBO-15. If no packets are shown the sender has not sent any weather packets the latest 10 day(s).
| Time | Temp. | Humidity | Pressure | Rain* | Wind** | Luminosity | Snow |
|---|---|---|---|---|---|---|---|
| 1777867558 | 12.22° C | - | 1013.9 hPa | 0 mm | - | - | - |
| 1777866954 | 12.22° C | - | 1013.8 hPa | 0 mm | - | - | - |
| 1777866350 | 12.22° C | - | 1013.6 hPa | 0 mm | - | - | - |
| 1777865747 | 12.22° C | - | 1013.7 hPa | 0 mm | - | - | - |
| 1777865144 | 12.22° C | - | 1013.6 hPa | 0 mm | - | - | - |
| 1777864539 | 12.78° C | - | 1013.7 hPa | 0 mm | - | - | - |
| 1777863936 | 12.78° C | - | 1013.8 hPa | 0 mm | - | - | - |
| 1777863332 | 12.78° C | - | 1013.8 hPa | 0 mm | - | - | - |
| 1777862758 | 12.78° C | - | 1013.8 hPa | 0 mm | - | - | - |
| 1777862154 | 13.33° C | - | 1013.7 hPa | 0 mm | - | - | - |
| 1777861551 | 13.33° C | - | 1013.7 hPa | 0 mm | - | - | - |
| 1777860947 | 13.33° C | - | 1013.6 hPa | 0 mm | - | - | - |
| 1777860343 | 12.78° C | - | 1013.7 hPa | 0 mm | - | - | - |
| 1777859739 | 13.33° C | - | 1013.8 hPa | 0 mm | - | - | - |
| 1777859135 | 13.33° C | - | 1013.8 hPa | 0 mm | - | - | - |
| 1777858531 | 13.33° C | - | 1013.9 hPa | 0 mm | - | - | - |
| 1777857958 | 13.89° C | - | 1013.8 hPa | 0 mm | - | - | - |
| 1777857355 | 13.89° C | - | 1013.8 hPa | 0 mm | - | - | - |
| 1777856751 | 14.44° C | - | 1013.8 hPa | 0 mm | - | - | - |
| 1777856147 | 14.44° C | - | 1013.7 hPa | 0 mm | - | - | - |
| 1777855544 | 14.44° C | - | 1013.8 hPa | 0 mm | - | - | - |
| 1777854940 | 15.56° C | - | 1013.9 hPa | 0 mm | - | - | - |
| 1777854336 | 16.11° C | - | 1013.9 hPa | 0 mm | - | - | - |
| 1777853732 | 16.67° C | - | 1013.8 hPa | 0 mm | - | - | - |
| 1777853129 | 17.22° C | - | 1013.6 hPa | 0 mm | - | - | - |
* Rain latest hour (hover to see other rain measurements)
** Current wind speed in m/s (hover to see current wind gust speed)